Location: Baia Mare
(47.6567°N, 23.5850°E)
Time: 20:19:24
(UTC+03:00)

Envisat - Pass Details

Date: 29 January 2022
Orbit: 764 x 765 km, 98.2° (Epoch: 19 May)

Event Time Altitude Azimuth Distance (km) Brightness Sun altitude
Rises 04:25:05 0° 24° (NNE) 3,241 6.7 -35.5°
Reaches altitude 10° 04:27:46 10° 37° (NE) 2,310 6.0 -35.1°
Maximum altitude 04:32:01 26° 93° (E) 1,474 4.9 -34.4°
Drops below altitude 10° 04:36:13 10° 150° (SSE) 2,297 5.6 -33.7°
Sets 04:38:52 0° 162° (SSE) 3,218 6.3 -33.2°
